Radiation Dose at Monitoring Post of Fukushima Daini Nuclear Power Station
Date,Time,MP-1(microSv/h),MP-2(microSv/h),MP-3(microSv/h),MP-4(microSv/h),MP-5(microSv/h),MP-6(microSv/h),MP-7(microSv/h),Wind Direction,Wind Velocity(m/s),Rain
2023/10/13,00:00,0.146,0.133,0.212,0.201,0.206,0.118,0.075,west-northwest,3.6,No
2023/10/13,00:10,0.145,0.132,0.211,0.202,0.209,0.118,0.075,west-northwest,4.1,No
2023/10/13,00:20,0.145,0.132,0.212,0.201,0.209,0.118,0.075,west-northwest,3.9,No
2023/10/13,00:30,0.146,0.131,0.213,0.201,0.207,0.119,0.076,west-northwest,2.7,No
2023/10/13,00:40,0.146,0.132,0.211,0.202,0.208,0.118,0.075,northwest,2.7,No
2023/10/13,00:50,0.146,0.132,0.212,0.201,0.208,0.118,0.075,west-northwest,3.6,No
2023/10/13,01:00,0.146,0.131,0.213,0.201,0.209,0.118,0.076,west-northwest,3.9,No
2023/10/13,01:10,0.146,0.132,0.213,0.200,0.209,0.118,0.076,west,3.6,No
2023/10/13,01:20,0.145,0.132,0.212,0.203,0.208,0.118,0.075,west-northwest,4.3,No
2023/10/13,01:30,0.146,0.132,0.212,0.201,0.209,0.118,0.075,west-northwest,4.3,No
2023/10/13,01:40,0.146,0.132,0.213,0.200,0.208,0.118,0.075,west-northwest,4.2,No
2023/10/13,01:50,0.145,0.131,0.213,0.202,0.208,0.117,0.075,west-northwest,5.3,No
2023/10/13,02:00,0.146,0.132,0.212,0.202,0.207,0.118,0.076,west,5.8,No
2023/10/13,02:10,0.147,0.132,0.213,0.201,0.208,0.118,0.075,west-northwest,6.0,No
2023/10/13,02:20,0.145,0.132,0.212,0.201,0.207,0.119,0.075,west-northwest,5.4,No
2023/10/13,02:30,0.146,0.132,0.212,0.201,0.208,0.118,0.076,west-northwest,4.3,No
2023/10/13,02:40,0.147,0.131,0.212,0.201,0.208,0.118,0.076,west-northwest,3.0,No
2023/10/13,02:50,0.146,0.132,0.212,0.202,0.209,0.118,0.075,northwest,2.1,No
2023/10/13,03:00,0.146,0.132,0.212,0.202,0.208,0.117,0.076,west-northwest,2.7,No
2023/10/13,03:10,0.145,0.132,0.212,0.201,0.210,0.118,0.076,west-northwest,2.4,No
2023/10/13,03:20,0.146,0.132,0.213,0.201,0.207,0.119,0.075,northwest,2.3,No
2023/10/13,03:30,0.147,0.133,0.213,0.201,0.207,0.118,0.076,northwest,3.3,No
2023/10/13,03:40,0.146,0.132,0.213,0.202,0.208,0.119,0.074,northwest,4.4,No
2023/10/13,03:50,0.145,0.132,0.212,0.202,0.207,0.118,0.075,northwest,4.0,No
2023/10/13,04:00,0.146,0.131,0.212,0.201,0.209,0.118,0.075,northwest,2.2,No
2023/10/13,04:10,0.146,0.132,0.213,0.201,0.208,0.118,0.076,northwest,4.5,No
2023/10/13,04:20,0.146,0.133,0.212,0.201,0.207,0.118,0.075,north-northwest,3.6,No
2023/10/13,04:30,0.146,0.131,0.212,0.201,0.207,0.118,0.076,northwest,4.8,No
2023/10/13,04:40,0.146,0.132,0.212,0.201,0.208,0.117,0.075,northwest,5.1,No
2023/10/13,04:50,0.146,0.132,0.213,0.202,0.208,0.119,0.076,northwest,6.6,No
2023/10/13,05:00,0.146,0.132,0.213,0.202,0.209,0.118,0.076,northwest,7.0,No
2023/10/13,05:10,0.145,0.132,0.211,0.201,0.208,0.118,0.075,northwest,7.3,No
2023/10/13,05:20,0.146,0.132,0.213,0.200,0.208,0.118,0.076,northwest,8.2,No
2023/10/13,05:30,0.146,0.131,0.212,0.201,0.208,0.119,0.075,northwest,7.9,No
2023/10/13,05:40,0.146,0.131,0.212,0.202,0.209,0.118,0.075,northwest,7.6,No
2023/10/13,05:50,0.146,0.132,0.213,0.201,0.207,0.117,0.075,northwest,6.7,No
2023/10/13,06:00,0.146,0.132,0.212,0.200,0.208,0.118,0.075,northwest,7.3,No
2023/10/13,06:10,0.147,0.132,0.212,0.201,0.207,0.118,0.075,northwest,5.8,No
2023/10/13,06:20,0.145,0.130,0.212,0.201,0.209,0.117,0.075,west-northwest,5.8,No
2023/10/13,06:30,0.146,0.132,0.212,0.201,0.208,0.119,0.075,west-northwest,4.4,No
2023/10/13,06:40,0.146,0.132,0.211,0.202,0.207,0.118,0.075,west-northwest,4.1,No
2023/10/13,06:50,0.145,0.133,0.211,0.201,0.207,0.118,0.076,northwest,6.0,No
2023/10/13,07:00,0.146,0.132,0.212,0.200,0.206,0.119,0.075,northwest,6.6,No
2023/10/13,07:10,0.146,0.132,0.211,0.201,0.208,0.118,0.075,northwest,5.9,No
2023/10/13,07:20,0.145,0.132,0.213,0.200,0.207,0.118,0.075,northwest,6.4,No
2023/10/13,07:30,0.147,0.132,0.212,0.201,0.207,0.119,0.075,northwest,6.0,No
2023/10/13,07:40,0.145,0.132,0.211,0.200,0.209,0.118,0.075,west-northwest,5.3,No
2023/10/13,07:50,0.146,0.131,0.212,0.199,0.207,0.119,0.075,northwest,3.9,No
2023/10/13,08:00,0.144,0.130,0.212,0.199,0.206,0.118,0.075,northwest,4.0,No
2023/10/13,08:10,0.145,0.132,0.212,0.200,0.207,0.119,0.075,northwest,4.3,No
2023/10/13,08:20,0.146,0.131,0.212,0.199,0.208,0.118,0.074,northwest,4.8,No
2023/10/13,08:30,0.145,0.132,0.211,0.200,0.206,0.118,0.074,northwest,5.3,No
2023/10/13,08:40,0.146,0.131,0.212,0.199,0.207,0.119,0.076,northwest,3.7,No
2023/10/13,08:50,0.144,0.131,0.211,0.201,0.208,0.118,0.075,northwest,2.6,No
2023/10/13,09:00,0.146,0.131,0.211,0.200,0.206,0.118,0.075,northwest,2.4,No
2023/10/13,09:10,0.146,0.132,0.213,0.201,0.209,0.117,0.075,north-northwest,5.2,No
2023/10/13,09:20,0.145,0.131,0.212,0.200,0.206,0.117,0.075,north-northwest,4.9,No
2023/10/13,09:30,0.145,0.133,0.212,0.198,0.204,0.118,0.075,north-northwest,5.0,No
2023/10/13,09:40,0.146,0.131,0.211,0.198,0.208,0.118,0.075,northwest,5.2,No
2023/10/13,09:50,0.146,0.132,0.213,0.201,0.207,0.117,0.076,northwest,5.4,No
2023/10/13,10:00,0.144,0.132,0.213,0.200,0.207,0.118,0.076,north-northwest,4.3,No
2023/10/13,10:10,0.145,0.131,0.211,0.200,0.205,0.117,0.075,northwest,6.0,No
2023/10/13,10:20,0.147,0.130,0.210,0.198,0.209,0.119,0.075,northwest,4.4,No
2023/10/13,10:30,0.145,0.132,0.211,0.199,0.208,0.118,0.075,north-northwest,4.1,No
2023/10/13,10:40,0.145,-,0.212,0.202,0.208,0.119,0.075,north-northwest,3.8,No
2023/10/13,10:50,0.145,-,0.210,0.202,0.205,0.118,0.075,north-northwest,3.9,No
2023/10/13,11:00,0.145,0.131,0.210,0.202,0.205,0.118,0.075,north-northwest,5.0,No
2023/10/13,11:10,0.143,0.132,0.209,0.199,0.208,0.118,0.074,north,2.8,No
2023/10/13,11:20,0.144,0.133,0.210,0.199,0.209,0.118,0.075,north,4.2,No
2023/10/13,11:30,0.143,0.131,0.212,0.199,0.208,0.119,0.076,northeast,3.6,No
2023/10/13,11:40,0.146,0.131,0.214,0.199,0.207,0.118,0.076,northeast,5.2,No
2023/10/13,11:50,0.147,0.130,0.212,0.202,0.207,0.117,0.077,northeast,4.6,No
2023/10/13,12:00,0.145,0.131,0.212,0.203,0.206,0.117,0.076,northeast,3.3,No
2023/10/13,12:10,0.144,0.133,0.210,0.202,0.208,0.119,0.075,northeast,3.5,No
2023/10/13,12:20,-,0.132,0.211,0.201,0.210,0.120,0.074,northeast,3.9,No
2023/10/13,12:30,-,0.132,0.212,0.200,0.210,0.119,0.075,northeast,3.3,No
2023/10/13,12:40,0.146,0.131,0.215,0.200,0.207,0.119,0.075,northeast,3.2,No
2023/10/13,12:50,0.148,0.132,0.213,0.199,0.207,0.118,0.076,northeast,4.3,No
2023/10/13,13:00,0.146,0.133,0.213,0.200,0.205,0.118,0.076,northeast,3.3,No
2023/10/13,13:10,0.146,0.133,0.212,0.201,0.207,0.119,0.075,northeast,3.3,No
2023/10/13,13:20,0.145,0.132,0.212,0.203,0.205,0.118,0.075,northeast,3.9,No
2023/10/13,13:30,0.144,0.132,0.211,0.203,0.206,0.118,0.075,northeast,3.3,No
2023/10/13,13:40,0.145,0.132,0.211,0.201,0.209,0.118,0.076,east-northeast,2.4,No
2023/10/13,13:50,0.145,0.131,0.214,0.200,0.210,0.118,0.075,northeast,2.9,No
2023/10/13,14:00,0.148,0.133,0.214,0.200,0.208,0.120,0.076,northeast,2.9,No
2023/10/13,14:10,0.147,0.133,0.211,0.200,0.207,0.119,0.075,east-northeast,3.1,No
2023/10/13,14:20,0.146,0.132,0.212,0.201,0.206,0.119,0.076,northeast,3.2,No
2023/10/13,14:30,0.145,0.131,0.215,0.203,0.208,0.118,0.075,northeast,3.2,No
2023/10/13,14:40,0.145,0.132,0.213,-,0.211,0.118,0.075,east-northeast,2.7,No
2023/10/13,14:50,0.147,0.133,0.214,-,0.209,0.118,0.076,east-northeast,3.5,No
2023/10/13,15:00,0.148,0.132,0.215,0.203,0.210,0.118,0.075,northeast,2.2,No
2023/10/13,15:10,0.145,0.133,0.213,0.201,0.210,0.119,0.076,northeast,2.5,No
2023/10/13,15:20,0.146,0.133,0.215,0.204,0.207,0.118,0.077,northeast,2.7,No
2023/10/13,15:30,0.148,0.133,0.213,0.202,0.211,0.118,0.076,northeast,1.3,No
2023/10/13,15:40,0.148,0.133,0.215,0.201,0.208,0.118,0.076,northeast,2.1,No
2023/10/13,15:50,0.148,0.133,0.213,0.204,0.209,-,0.076,north,3.7,No
2023/10/13,16:00,0.147,0.133,0.215,0.201,0.210,-,0.077,north,2.5,No
2023/10/13,16:10,0.147,0.133,0.213,0.204,0.208,0.118,0.075,north-northeast,2.5,No
2023/10/13,16:20,0.147,0.133,0.215,0.202,0.211,0.118,0.076,north-northeast,2.2,No
2023/10/13,16:30,0.146,0.132,0.214,0.203,0.208,0.118,0.076,north,2.2,No
2023/10/13,16:40,0.147,0.133,0.215,0.202,0.210,0.119,0.076,north,2.1,No
2023/10/13,16:50,0.146,0.133,0.214,0.203,0.209,0.119,0.076,north-northwest,1.9,No
2023/10/13,17:00,0.148,0.134,0.215,0.203,0.209,0.120,0.077,north-northwest,2.6,No
2023/10/13,17:10,0.147,0.133,0.214,0.203,0.210,0.118,0.076,northwest,2.4,No
2023/10/13,17:20,0.148,0.133,0.214,0.202,0.209,0.119,0.076,northwest,2.0,No
2023/10/13,17:30,0.147,0.133,0.215,0.203,0.210,0.119,0.076,north-northwest,1.8,No
2023/10/13,17:40,0.147,0.133,0.215,0.202,0.211,0.119,0.077,north-northwest,1.3,No
2023/10/13,17:50,0.146,0.133,0.216,0.203,0.211,0.119,0.076,north,1.6,No
2023/10/13,18:00,0.148,0.132,0.214,0.202,0.211,0.119,0.076,north-northwest,2.4,No
2023/10/13,18:10,0.148,0.134,0.215,0.203,0.209,0.119,0.076,north-northwest,1.4,No
2023/10/13,18:20,0.147,0.133,0.215,0.203,0.210,0.120,0.077,north-northwest,2.4,No
2023/10/13,18:30,0.148,0.134,0.214,0.202,0.209,0.119,0.076,northwest,3.1,No
2023/10/13,18:40,0.147,0.134,0.215,0.204,0.210,0.119,0.076,northwest,2.6,No
2023/10/13,18:50,0.146,0.132,0.213,0.202,0.209,0.119,0.077,northwest,2.2,No
2023/10/13,19:00,0.147,0.135,0.214,0.203,0.210,0.119,0.076,northwest,2.2,No
2023/10/13,19:10,0.148,0.133,0.215,0.203,0.209,0.119,0.076,northwest,2.7,No
2023/10/13,19:20,0.147,0.134,0.215,0.203,0.211,0.118,0.076,north-northwest,3.8,No
2023/10/13,19:30,0.147,0.133,0.215,0.203,0.209,0.119,0.076,northwest,3.5,No
2023/10/13,19:40,0.146,0.133,0.216,0.201,0.210,0.120,0.076,northwest,3.9,No
2023/10/13,19:50,0.149,0.133,0.214,0.203,0.209,0.119,0.076,north-northwest,3.6,No
2023/10/13,20:00,0.147,0.133,0.214,0.204,0.210,0.120,0.076,northwest,3.5,No
2023/10/13,20:10,0.147,0.133,0.215,0.203,0.210,0.119,0.076,west-northwest,3.6,No
2023/10/13,20:20,0.147,0.134,0.214,0.204,0.210,0.119,0.076,west-northwest,2.8,No
2023/10/13,20:30,0.147,0.133,0.215,0.203,0.210,0.119,0.076,west-northwest,4.7,No
2023/10/13,20:40,0.148,0.133,0.214,0.202,0.208,0.119,0.076,northwest,4.4,No
2023/10/13,20:50,0.148,0.133,0.214,0.204,0.211,0.119,0.076,northwest,4.5,No
2023/10/13,21:00,0.148,0.134,0.214,0.203,0.209,0.119,0.077,northwest,4.9,No
2023/10/13,21:10,0.148,0.133,0.214,0.203,0.209,0.118,0.077,west-northwest,4.6,No
2023/10/13,21:20,0.148,0.133,0.214,0.203,0.210,0.120,0.077,northwest,4.9,No
2023/10/13,21:30,0.147,0.133,0.215,0.204,0.209,0.120,0.076,northwest,5.4,No
2023/10/13,21:40,0.147,0.133,0.215,0.203,0.211,0.119,0.076,northwest,6.0,No
2023/10/13,21:50,0.147,0.133,0.214,0.203,0.208,0.120,0.076,west-northwest,5.9,No
2023/10/13,22:00,0.147,0.133,0.214,0.202,0.211,0.120,0.076,west-northwest,6.0,No
2023/10/13,22:10,0.147,0.133,0.215,0.203,0.209,0.119,0.076,northwest,5.7,No
2023/10/13,22:20,0.148,0.134,0.214,0.203,0.211,0.120,0.077,northwest,5.6,No
2023/10/13,22:30,0.147,0.133,0.215,0.204,0.209,0.119,0.076,northwest,5.6,No
2023/10/13,22:40,0.147,0.133,0.214,0.203,0.209,0.120,0.076,northwest,5.5,No
2023/10/13,22:50,0.148,0.134,0.213,0.203,0.210,0.119,0.077,northwest,5.0,No
2023/10/13,23:00,0.147,0.133,0.214,0.203,0.208,0.119,0.076,northwest,5.4,No
2023/10/13,23:10,0.147,0.132,0.215,0.203,0.211,0.120,0.076,northwest,5.3,No
2023/10/13,23:20,0.147,0.133,0.213,0.203,0.209,0.119,0.076,northwest,5.2,No
2023/10/13,23:30,0.147,0.133,0.216,0.203,0.211,0.119,0.076,northwest,5.3,No
2023/10/13,23:40,0.147,0.134,0.214,0.203,0.209,0.119,0.077,northwest,4.9,No
2023/10/13,23:50,0.146,0.133,0.214,0.203,0.209,0.119,0.075,northwest,5.0,No
